GFSNIL_sfc_30mbdewp_153.txt.gz
Dewpoint
42 41 40 39 36 36 35 36 36 32 29 28 31 32 31 37 38 39 39 37 38 36
41 41 40 38 37 36 36 35 34 28 26 27 30 31 29 32 35 36 36 36 36 35
41 41 40 38 36 36 35 34 29 26 26 27 28 30 29 30 34 34 35 34 32 34
41 40 40 38 37 36 34 32 28 26 26 25 27 29 28 28 31 32 31 31 30 30
41 41 40 39 38 36 33 30 27 26 25 25 27 28 28 26 29 30 31 30 29 29
41 41 40 39 38 36 33 30 26 25 25 24 26 28 29 27 27 28 30 30 30 28
40 41 41 40 39 37 33 30 26 24 23 23 25 28 28 27 27 27 29 30 30 29
38 41 41 40 39 37 34 31 27 24 22 22 24 27 29 29 28 27 26 29 30 30
36 39 40 40 39 38 35 32 28 25 23 23 23 27 31 31 27 28 27 27 27 26
35 37 38 38 38 37 35 32 29 27 25 24 24 27 31 33 28 27 28 27 27 25
34 35 36 36 36 35 34 32 30 28 25 24 24 27 30 33 31 28 28 27 27 25
33 33 34 34 35 35 33 31 29 27 26 24 24 27 30 33 29 27 29 28 26 25
33 33 33 33 33 34 33 32 30 28 25 25 23 27 30 34 31 30 32 29 25 26
32 32 32 33 33 32 32 31 29 27 26 24 25 25 29 33 34 33 32 30 26 24

GFSNIL_sfc_30mbdewp_156.txt.gz
Dewpoint
42 41 41 40 39 38 36 35 35 36 32 28 28 31 30 34 37 37 38 37 38 35
41 41 41 41 40 38 37 36 36 35 30 26 28 30 30 30 34 35 37 35 36 35
42 41 41 40 39 38 37 36 35 32 28 26 27 29 30 29 32 33 34 34 33 34
40 41 41 40 39 38 37 36 34 32 28 26 25 27 29 28 30 32 32 32 30 30
39 41 41 40 40 39 37 36 34 31 28 26 25 26 27 27 27 30 31 31 30 29
35 38 40 40 40 39 38 36 33 30 27 26 25 25 27 28 27 27 29 30 30 29
33 35 39 40 40 39 38 36 33 30 27 26 25 25 26 28 27 27 28 30 30 30
34 36 38 40 40 39 38 37 34 31 28 25 24 24 26 28 28 27 26 27 30 30
34 35 36 38 38 38 38 37 34 32 30 27 24 24 28 30 28 29 28 26 28 29
33 33 34 35 35 35 35 35 34 32 30 29 26 26 28 31 31 28 27 27 27 27
32 33 33 33 33 33 34 34 33 32 31 29 27 28 29 31 33 29 27 28 28 27
32 32 32 32 33 33 33 33 32 31 30 28 28 28 30 31 32 30 28 28 27 27
32 32 31 32 32 33 32 32 32 31 30 29 28 28 29 32 32 30 28 30 32 33
31 31 31 31 31 31 30 29 29 29 28 27 26 26 29 30 32 31 31 32 31 31

GFSNIL_sfc_30mbdewp_162.txt.gz
Dewpoint
42 42 42 42 42 42 42 42 41 39 37 36 34 31 29 30 30 31 34 35 36 35
38 39 39 40 41 42 43 43 42 40 38 36 34 31 28 28 28 29 31 34 36 36
35 36 37 38 40 41 42 43 42 40 39 37 35 32 29 28 29 29 30 32 34 34
34 35 35 36 37 40 42 42 42 41 40 38 36 33 30 28 28 28 28 31 32 32
34 35 35 35 36 39 41 42 41 41 40 39 37 35 32 29 26 26 26 28 30 30
33 34 34 36 38 40 41 41 41 40 39 39 38 36 34 31 28 27 26 27 28 29
32 32 33 34 36 38 40 40 39 39 39 38 38 37 35 32 29 27 26 26 28 28
32 32 33 33 33 34 35 36 37 37 37 37 36 36 35 34 31 29 27 26 27 28
32 32 33 33 34 34 34 33 33 33 34 35 36 35 35 34 34 32 29 27 26 27
31 31 32 32 32 33 33 33 33 33 33 33 33 34 35 36 35 34 31 28 27 26
31 31 31 32 32 32 32 32 32 32 32 32 33 33 34 35 35 34 34 31 28 27
30 30 30 30 31 32 32 31 31 31 31 31 31 32 33 34 33 33 33 33 30 28
31 31 30 30 30 31 31 30 30 30 30 30 29 29 31 32 32 32 32 33 31 30
30 30 30 30 30 30 30 29 29 29 28 28 27 28 29 31 31 31 32 32 30 29

GFSNIL_sfc_30mbdewp_165.txt.gz
Dewpoint
43 40 40 39 40 41 42 43 43 43 41 39 37 35 33 32 32 32 34 35 35 35
37 37 37 38 38 40 41 42 43 43 42 40 38 36 34 31 30 31 32 34 35 36
35 35 35 35 36 37 39 41 43 43 42 41 40 38 35 33 31 30 31 31 33 35
34 34 34 35 34 35 37 40 42 43 42 42 40 39 37 34 33 31 30 30 31 32
33 34 34 34 36 37 38 40 42 42 42 41 41 40 38 36 34 31 30 29 29 30
32 32 32 33 35 37 38 40 40 40 40 40 40 40 39 37 35 34 32 30 29 29
31 31 32 32 32 32 34 36 37 37 37 38 38 38 38 37 36 34 33 31 30 28
31 32 32 33 33 33 33 33 33 33 34 35 35 36 36 36 36 35 34 33 30 29
31 31 31 32 32 33 33 33 33 33 34 35 34 34 36 37 36 35 36 34 32 30
30 31 31 31 31 32 32 32 32 32 32 32 33 34 36 36 36 36 35 35 33 30
30 30 30 31 31 31 32 32 32 32 32 32 32 33 34 35 35 35 35 35 35 32
30 30 30 30 30 31 31 32 32 31 31 31 31 32 32 33 32 33 33 34 34 33
30 30 30 30 31 31 31 31 31 30 31 30 30 30 30 31 31 31 32 33 33 33
29 29 29 28 29 29 30 30 30 29 29 28 28 28 29 31 32 31 32 32 32 32

GFSNIL_sfc_30mbdewp_168.txt.gz
Dewpoint
44 42 40 40 40 40 41 42 44 44 43 41 40 38 36 34 33 34 33 34 36 36
38 37 37 38 38 38 40 41 41 43 44 43 41 39 36 34 32 32 32 32 34 35
35 36 36 36 35 36 37 38 41 43 44 43 42 40 38 36 34 32 32 32 32 34
35 35 35 36 36 37 38 38 40 42 43 43 42 41 39 37 35 33 32 32 30 31
34 34 34 34 35 37 38 40 41 42 42 42 42 41 40 39 36 34 33 32 31 30
32 32 32 32 33 33 35 37 38 39 40 40 40 40 40 40 39 37 35 33 31 30
32 32 32 33 34 34 34 33 34 35 36 36 37 38 38 38 38 37 36 35 33 31
32 32 32 33 33 33 34 34 34 34 34 34 34 35 36 36 35 35 36 36 35 33
31 31 31 32 33 32 33 33 33 33 34 34 34 34 36 37 36 36 36 35 36 35
30 31 31 31 32 32 32 33 33 33 33 32 33 34 36 36 36 36 36 36 36 35
30 31 31 31 31 31 32 32 32 32 32 32 32 33 35 34 34 35 35 35 35 35
31 30 31 31 31 31 31 31 32 32 31 31 31 32 33 33 32 32 32 33 34 35
30 31 30 31 31 31 31 30 31 31 31 31 31 32 33 31 31 31 31 32 33 33
29 29 29 29 28 28 29 29 29 29 30 29 29 29 30 31 31 32 31 32 32 32